Location: Unspecified
(0.0000°N, 0.0000°E)
Time: 06:08:23
(UTC+00:00)

Vanguard 2 Rocket - Pass Details

Date: 07 October 2022
Orbit: 555 x 3321 km, 32.9° (Epoch: 06 December)

Event Time Altitude Azimuth Distance (km) Brightness Sun altitude
Rises 16:01:03 0° 224° (SW) 5,799 11.7 26.5°
Reaches altitude 10° 16:04:31 10° 219° (SW) 5,105 11.5 25.7°
Maximum altitude 16:20:38 57° 143° (SE) 3,557 10.0 21.7°
Drops below altitude 10° 16:40:20 10° 70° (ENE) 6,141 10.6 16.8°
Sets 16:44:56 0° 66° (ENE) 6,993 10.8 15.6°
